Temp
-13 -12 -12 -12 -12 -12 -11 -11 -9 -8 -8 -9 -9 -9 -8 -7 -8 -9 -7 -7 -7 -7 -7 -6 -6 -6 -6 -6 -6 -6 -6 -6 -6 -6 -6 -6 -6 -6 -6 -6 -6 -6 -7 -7
-13 -12 -12 -12 -11 -11 -10 -10 -9 -9 -9 -10 -9 -9 -9 -9 -7 -7 -7 -6 -7 -7 -7 -7 -7 -7 -6 -5 -6 -6 -7 -6 -6 -6 -6 -6 -7 -6 -7 -7 -7 -6 -6 -6
-13 -12 -12 -11 -11 -11 -10 -10 -10 -9 -9 -10 -10 -9 -9 -9 -8 -7 -7 -7 -7 -5 -6 -8 -7 -7 -7 -7 -7 -6 -7 -7 -6 -6 -7 -8 -8 -7 -7 -7 -6 -7 -7 -6
-13 -13 -12 -12 -11 -11 -11 -10 -10 -10 -9 -10 -10 -11 -9 -9 -9 -8 -8 -8 -7 -7 -8 -7 -7 -7 -7 -7 -7 -7 -7 -7 -7 -7 -8 -8 -8 -8 -7 -7 -7 -7 -7 -6
-13 -14 -12 -12 -12 -11 -12 -10 -10 -11 -10 -10 -10 -10 -10 -9 -8 -8 -9 -8 -7 -7 -7 -7 -7 -7 -7 -7 -7 -7 -7 -7 -8 -8 -8 -8 -9 -8 -7 -7 -7 -8 -8 -7
-14 -13 -12 -12 -13 -13 -12 -12 -11 -11 -11 -11 -10 -11 -11 -10 -9 -9 -9 -8 -8 -8 -8 -8 -8 -8 -7 -7 -7 -7 -7 -7 -8 -8 -8 -9 -8 -8 -8 -9 -8 -8 -8 -8
-14 -13 -13 -12 -12 -12 -12 -12 -12 -12 -11 -11 -11 -11 -11 -10 -10 -10 -10 -9 -9 -9 -9 -9 -9 -9 -9 -9 -9 -8 -8 -8 -8 -9 -9 -9 -9 -9 -9 -9 -9 -8 -8 -8
-14 -14 -13 -13 -13 -12 -12 -12 -12 -12 -12 -12 -12 -12 -11 -11 -10 -10 -10 -10 -10 -10 -10 -10 -10 -10 -10 -10 -10 -9 -9 -9 -9 -10 -10 -10 -10 -10 -10 -10 -9 -9 -9 -9
-15 -14 -14 -14 -13 -13 -13 -13 -13 -13 -12 -12 -12 -12 -11 -11 -11 -11 -11 -11 -11 -10 -11 -11 -11 -11 -10 -10 -10 -10 -10 -11 -11 -11 -11 -10 -10 -10 -10 -10 -10 -9 -9 -9
-14 -14 -14 -14 -14 -14 -14 -13 -13 -12 -13 -12 -12 -12 -12 -11 -11 -12 -11 -11 -11 -11 -11 -11 -11 -10 -10 -10 -10 -10 -10 -11 -11 -11 -10 -10 -10 -10 -10 -10 -10 -9 -9 -9
-14 -14 -15 -15 -15 -14 -14 -13 -12 -12 -13 -12 -12 -12 -12 -12 -12 -12 -12 -12 -12 -11 -11 -11 -10 -10 -11 -11 -11 -12 -12 -12 -11 -11 -11 -11 -11 -10 -10 -10 -10 -10 -10 -11
-14 -14 -14 -14 -14 -13 -13 -14 -13 -13 -13 -13 -13 -12 -13 -13 -12 -12 -12 -12 -12 -12 -12 -11 -11 -11 -11 -11 -11 -11 -11 -12 -12 -12 -12 -12 -12 -12 -12 -11 -11 -11 -11 -11
-14 -14 -14 -14 -14 -14 -14 -14 -13 -13 -13 -13 -13 -13 -13 -13 -14 -13 -13 -12 -12 -12 -12 -12 -11 -11 -11 -11 -12 -12 -12 -12 -12 -12 -12 -12 -12 -12 -12 -13 -13 -13 -12 -12
-14 -14 -14 -14 -14 -14 -14 -14 -13 -13 -13 -13 -14 -13 -14 -13 -13 -13 -13 -14 -13 -13 -13 -13 -13 -13 -13 -13 -13 -13 -13 -13 -13 -12 -13 -13 -13 -13 -13 -13 -13 -13 -13 -13
-13 -14 -14 -14 -14 -14 -14 -14 -14 -14 -14 -14 -13 -13 -13 -13 -14 -14 -14 -14 -14 -14 -14 -14 -13 -13 -13 -13 -14 -14 -14 -14 -14 -14 -14 -14 -14 -14 -14 -14 -14 -14 -14 -14
-13 -14 -14 -14 -14 -14 -14 -14 -14 -14 -14 -14 -14 -13 -14 -14 -14 -14 -14 -14 -14 -14 -14 -14 -14 -14 -14 -14 -14 -14 -14 -14 -14 -14 -14 -14 -14 -14 -15 -15 -15 -15 -15 -14
-14 -14 -14 -14 -14 -14 -14 -14 -14 -14 -14 -14 -14 -14 -14 -14 -14 -14 -15 -15 -15 -15 -15 -14 -15 -15 -15 -14 -14 -14 -14 -14 -14 -14 -14 -14 -15 -15 -15 -15 -15 -15 -15 -15
-14 -14 -14 -14 -14 -14 -14 -14 -14 -14 -14 -14 -14 -14 -14 -14 -15 -15 -15 -15 -15 -15 -15 -15 -15 -15 -15 -15 -15 -15 -16 -16 -16 -16 -15 -15 -16 -16 -16 -16 -16 -16 -16 -16
-14 -15 -15 -14 -14 -14 -14 -14 -14 -14 -14 -13 -13 -14 -14 -15 -15 -15 -15 -16 -16 -16 -16 -16 -16 -16 -16 -16 -16 -16 -16 -16 -16 -16 -16 -16 -16 -16 -16 -16 -16 -16 -17 -17
-14 -15 -15 -14 -14 -14 -14 -14 -14 -14 -14 -14 -14 -14 -14 -15 -15 -16 -16 -16 -16 -16 -16 -16 -16 -16 -16 -16 -16 -16 -16 -16 -16 -16 -17 -17 -17 -17 -17 -17 -18 -18 -18 -18
-15 -15 -14 -14 -14 -14 -14 -14 -13 -13 -14 -14 -14 -14 -14 -15 -15 -16 -16 -16 -16 -17 -17 -17 -17 -17 -17 -17 -17 -17 -17 -17 -17 -17 -17 -17 -18 -18 -19 -19 -20 -20 -20 -20
-15 -14 -14 -14 -14 -14 -14 -14 -14 -14 -14 -14 -14 -14 -15 -15 -15 -16 -16 -16 -17 -17 -17 -17 -17 -17 -17 -17 -17 -17 -17 -17 -18 -19 -19 -19 -20 -20 -21 -21 -21 -21 -21 -21
-15 -15 -15 -14 -14 -14 -14 -14 -14 -14 -14 -15 -15 -15 -15 -15 -16 -16 -16 -16 -17 -17 -17 -18 -18 -18 -18 -18 -17 -17 -18 -19 -20 -21 -21 -21 -22 -22 -22 -22 -22 -21 -21 -22
-15 -15 -14 -14 -14 -14 -14 -14 -14 -14 -15 -15 -15 -15 -15 -16 -16 -16 -16 -17 -17 -18 -18 -18 -18 -18 -18 -18 -18 -19 -19 -21 -22 -22 -23 -23 -24 -24 -23 -23 -23 -23 -23 -22
-15 -14 -14 -14 -14 -14 -14 -14 -14 -14 -14 -15 -15 -15 -16 -16 -16 -16 -17 -17 -18 -18 -19 -19 -19 -19 -19 -19 -19 -19 -20 -22 -23 -24 -24 -24 -24 -24 -24 -24 -24 -23 -23 -23
-14 -14 -14 -14 -14 -14 -14 -14 -14 -14 -14 -15 -15 -15 -16 -17 -17 -17 -18 -18 -19 -19 -19 -19 -19 -19 -19 -19 -19 -20 -21 -23 -23 -23 -23 -24 -24 -24 -24 -24 -24 -24 -24 -23
-15 -14 -14 -14 -14 -14 -14 -14 -14 -14 -15 -15 -15 -16 -16 -17 -18 -18 -19 -19 -19 -19 -20 -20 -20 -20 -20 -20 -20 -21 -21 -23 -23 -23 -23 -23 -24 -24 -24 -24 -24 -24 -24 -24
Height
5798 5803 5807 5810 5814 5817 5822 5826 5831 5836 5836 5840 5844 5846 5848 5849 5852 5853 5855 5856 5858 5862 5867 5871 5876 5880 5883 5886 5887 5892 5895 5897 5899 5900 5898 5902 5905 5907 5909 5911 5914 5915 5916 5917
5793 5795 5797 5804 5811 5815 5818 5821 5826 5829 5832 5835 5840 5843 5844 5845 5847 5851 5852 5854 5855 5859 5864 5865 5869 5873 5876 5878 5881 5886 5890 5892 5893 5893 5893 5896 5899 5900 5903 5906 5908 5909 5911 5912
5787 5791 5794 5799 5803 5811 5813 5817 5821 5824 5828 5832 5835 5839 5841 5841 5842 5846 5847 5851 5853 5857 5860 5863 5863 5867 5870 5873 5876 5878 5881 5885 5885 5885 5885 5890 5894 5895 5898 5899 5901 5902 5903 5905
5782 5786 5787 5795 5799 5806 5810 5811 5815 5819 5822 5828 5829 5832 5836 5839 5841 5841 5842 5846 5849 5850 5853 5855 5859 5862 5864 5866 5869 5872 5874 5875 5875 5876 5880 5883 5888 5890 5892 5893 5894 5896 5897 5898
5778 5781 5786 5788 5794 5802 5805 5808 5810 5815 5817 5821 5825 5828 5831 5834 5836 5838 5838 5840 5844 5847 5850 5852 5853 5855 5859 5861 5865 5866 5867 5868 5869 5873 5879 5882 5883 5886 5887 5888 5888 5890 5890 5891
5773 5775 5779 5784 5790 5797 5802 5803 5806 5809 5813 5817 5820 5822 5821 5826 5830 5832 5835 5837 5838 5840 5843 5847 5848 5849 5851 5854 5856 5858 5858 5858 5864 5868 5871 5875 5880 5880 5881 5882 5883 5883 5884 5886
5769 5771 5774 5778 5785 5791 5797 5802 5802 5804 5807 5811 5815 5816 5817 5818 5823 5827 5829 5832 5834 5836 5838 5840 5843 5845 5846 5849 5852 5855 5856 5855 5858 5860 5863 5867 5871 5872 5872 5873 5876 5878 5879 5880
5767 5769 5772 5775 5777 5784 5790 5793 5799 5801 5803 5805 5807 5809 5813 5815 5815 5816 5822 5826 5829 5831 5834 5837 5840 5842 5843 5843 5846 5848 5850 5851 5852 5854 5859 5861 5864 5866 5867 5868 5871 5870 5871 5872
5764 5766 5770 5772 5775 5780 5784 5788 5793 5794 5797 5800 5802 5804 5807 5806 5808 5811 5813 5819 5822 5825 5826 5830 5832 5835 5839 5841 5844 5845 5846 5847 5848 5851 5852 5856 5856 5857 5860 5859 5860 5862 5863 5863
5765 5765 5765 5768 5770 5774 5777 5781 5786 5789 5791 5794 5797 5798 5798 5800 5804 5803 5808 5808 5814 5818 5819 5821 5824 5827 5828 5830 5832 5834 5836 5839 5840 5841 5843 5845 5846 5848 5848 5848 5848 5850 5851 5851
5763 5764 5765 5767 5769 5771 5774 5777 5780 5784 5787 5789 5791 5793 5795 5797 5799 5801 5803 5802 5805 5810 5813 5817 5817 5818 5819 5821 5823 5824 5825 5826 5827 5829 5830 5831 5832 5833 5834 5836 5837 5837 5838 5839
5763 5764 5765 5766 5767 5769 5771 5775 5778 5783 5784 5784 5787 5790 5790 5791 5791 5793 5799 5800 5801 5805 5808 5810 5810 5811 5811 5812 5813 5814 5814 5815 5815 5816 5816 5816 5817 5817 5818 5820 5821 5822 5823 5824
5764 5764 5764 5764 5765 5767 5768 5770 5772 5774 5779 5781 5783 5786 5788 5788 5787 5788 5789 5792 5794 5795 5796 5798 5799 5800 5802 5802 5803 5802 5802 5803 5803 5803 5803 5803 5803 5803 5804 5804 5805 5805 5806 5807
5764 5764 5765 5765 5766 5767 5768 5768 5769 5772 5775 5777 5779 5782 5783 5784 5785 5785 5786 5786 5786 5787 5788 5789 5789 5790 5791 5791 5791 5792 5792 5792 5792 5792 5792 5791 5790 5790 5791 5790 5791 5791 5791 5791
5763 5764 5765 5766 5767 5767 5768 5767 5768 5769 5770 5772 5775 5777 5778 5778 5780 5781 5781 5782 5782 5781 5781 5781 5780 5781 5782 5782 5781 5781 5781 5782 5782 5782 5782 5780 5779 5779 5779 5778 5778 5778 5778 5777
5760 5761 5763 5763 5764 5764 5765 5764 5764 5765 5766 5765 5765 5767 5768 5770 5771 5773 5773 5773 5773 5772 5772 5771 5771 5772 5772 5771 5769 5768 5766 5766 5767 5767 5766 5766 5765 5764 5763 5764 5763 5763 5762 5761
5754 5756 5758 5758 5759 5760 5760 5761 5761 5762 5762 5762 5761 5761 5760 5760 5759 5760 5761 5762 5762 5762 5762 5762 5761 5760 5759 5757 5757 5756 5755 5753 5752 5751 5749 5748 5747 5747 5746 5746 5745 5745 5744 5743
5748 5750 5752 5754 5754 5754 5754 5756 5756 5756 5756 5756 5755 5754 5752 5750 5748 5748 5747 5748 5748 5749 5750 5749 5748 5747 5746 5745 5744 5741 5739 5736 5734 5732 5730 5730 5729 5727 5726 5726 5727 5726 5725 5725
5744 5745 5747 5748 5750 5750 5751 5751 5751 5751 5750 5749 5748 5747 5746 5744 5743 5741 5739 5737 5737 5736 5736 5736 5736 5735 5733 5731 5730 5728 5726 5723 5720 5717 5713 5711 5709 5707 5706 5705 5706 5706 5706 5705
5739 5740 5742 5744 5745 5746 5747 5747 5746 5746 5745 5744 5743 5742 5739 5737 5735 5734 5732 5731 5730 5728 5726 5725 5723 5722 5720 5718 5716 5713 5709 5704 5700 5696 5692 5689 5687 5685 5683 5682 5681 5683 5684 5685
5733 5735 5737 5740 5741 5742 5743 5743 5743 5743 5742 5740 5739 5736 5734 5732 5731 5729 5727 5726 5724 5722 5720 5718 5715 5713 5709 5705 5700 5695 5690 5685 5680 5675 5669 5665 5662 5660 5659 5659 5659 5659 5661 5664
5728 5730 5733 5734 5736 5737 5738 5739 5739 5738 5737 5736 5734 5731 5729 5727 5725 5723 5721 5719 5717 5714 5710 5706 5703 5699 5695 5690 5684 5678 5671 5664 5657 5651 5645 5641 5638 5636 5635 5636 5638 5641 5644 5647
5722 5725 5727 5729 5731 5732 5733 5734 5735 5733 5732 5731 5729 5727 5725 5722 5719 5716 5714 5712 5709 5705 5701 5698 5694 5689 5684 5678 5671 5663 5656 5649 5642 5636 5629 5623 5618 5615 5614 5615 5618 5623 5631 5630
5717 5719 5722 5725 5726 5727 5728 5728 5729 5728 5726 5725 5723 5721 5718 5715 5712 5709 5705 5703 5701 5697 5693 5689 5684 5679 5673 5666 5659 5652 5645 5637 5630 5622 5615 5607 5602 5601 5599 5600 5602 5605 5610 5616
5711 5714 5716 5719 5721 5722 5722 5722 5723 5722 5720 5718 5716 5713 5711 5708 5704 5700 5697 5694 5692 5688 5684 5681 5675 5670 5664 5656 5648 5641 5634 5627 5621 5614 5606 5598 5593 5591 5590 5589 5590 5593 5597 5600
5705 5707 5710 5712 5714 5715 5715 5715 5715 5713 5711 5709 5706 5704 5701 5698 5694 5691 5688 5685 5683 5679 5675 5671 5667 5661 5654 5647 5639 5632 5625 5618 5613 5608 5601 5592 5586 5584 5582 5582 5582 5583 5587 5590
5700 5702 5704 5705 5706 5707 5707 5706 5706 5704 5703 5701 5697 5695 5692 5689 5686 5683 5679 5677 5674 5670 5667 5663 5659 5654 5646 5640 5632 5626 5618 5612 5607 5603 5597 5590 5583 5578 5576 5576 5577 5578 5578 5580
Wind_Speed
41 36 33 36 30 31 31 28 25 19 17 14 13 17 15 16 9 9 9 14 21 35 35 32 35 30 29 31 30 38 30 24 22 18 22 26 25 22 20 19 17 22 20 23
38 37 44 40 30 25 29 32 31 27 24 20 19 17 16 17 20 12 9 15 11 15 25 43 42 33 34 29 33 43 33 28 28 22 21 24 24 24 21 21 22 30 27 26
38 44 42 42 31 25 25 34 36 36 33 28 24 23 25 20 17 18 15 14 15 17 22 23 23 28 27 35 37 40 39 41 29 29 20 16 22 24 23 24 25 31 30 30
24 40 42 41 31 28 27 27 37 38 37 34 34 26 25 25 24 20 18 18 17 15 17 12 18 25 32 35 39 42 33 32 31 23 16 16 20 21 20 20 22 25 28 30
23 36 44 35 38 32 30 28 21 32 34 32 32 29 26 27 29 27 24 24 22 23 18 16 20 22 25 34 38 42 34 28 9 8 13 17 19 19 20 21 22 21 20 21
27 26 37 42 34 24 29 29 32 30 33 31 29 26 28 29 28 29 25 25 26 25 24 27 26 21 19 18 23 18 29 26 16 17 21 22 22 23 25 24 23 23 23 25
22 27 31 35 36 34 35 31 31 33 31 36 36 32 32 32 31 31 29 27 30 29 27 26 26 29 25 24 26 21 19 18 21 20 26 25 24 28 24 21 23 27 28 26
11 23 28 32 35 35 31 36 33 39 37 35 34 32 33 34 38 35 34 33 30 33 32 31 28 25 23 21 23 22 21 18 23 22 24 21 23 27 28 29 31 33 35 35
5 14 21 21 26 27 33 36 37 31 38 38 39 37 35 38 40 27 30 33 36 41 32 30 25 20 19 21 24 26 28 29 30 34 30 33 36 36 38 39 41 41 43 44
5 6 13 14 15 16 18 32 37 40 37 34 46 38 41 26 34 45 25 24 20 38 46 32 28 29 27 28 31 33 35 37 39 41 43 43 43 44 43 43 41 42 41 42
3 9 9 10 6 8 6 11 23 28 32 30 33 33 32 31 19 14 7 4 12 13 27 33 38 37 36 34 36 36 37 40 41 42 43 44 45 45 45 45 46 46 45 45
4 6 9 7 7 7 10 13 15 17 19 22 24 22 18 19 17 11 10 16 16 17 27 34 39 45 46 45 42 42 43 44 46 48 49 49 50 50 50 50 50 51 52 52
2 3 2 2 5 8 9 12 13 12 14 17 18 17 16 15 15 18 18 19 24 28 30 32 34 35 37 38 40 41 43 47 50 52 53 54 54 54 54 54 53 53 53 53
4 4 5 8 8 8 8 9 11 13 14 14 13 13 11 11 13 17 20 22 24 28 31 32 33 34 34 35 37 40 42 44 47 49 50 51 51 52 53 53 54 53 52 51
5 4 4 4 6 9 11 12 12 13 14 15 16 17 16 16 16 18 19 21 23 24 26 28 30 31 33 35 36 36 37 38 39 40 41 43 44 46 48 49 50 51 51 51
8 7 7 6 5 3 4 6 9 11 14 16 19 20 20 21 22 24 25 27 29 32 33 35 38 39 40 41 43 45 45 46 47 49 50 51 52 52 53 53 53 54 55 55
12 11 8 8 8 9 10 11 11 10 10 12 15 19 22 26 28 29 29 29 30 31 33 34 34 36 38 39 41 43 45 48 50 52 54 54 55 56 57 57 59 59 60 60
16 13 12 11 11 12 10 7 7 9 10 13 16 18 22 26 30 31 30 30 29 30 31 33 35 36 38 40 41 43 44 47 49 51 54 55 57 58 59 60 60 59 60 60
15 15 15 13 11 9 8 6 8 10 13 16 17 19 19 19 22 23 25 27 28 30 30 30 30 31 32 34 36 38 41 44 48 51 54 55 57 59 60 61 61 61 61 62
16 16 16 13 13 11 7 9 10 14 16 18 20 19 20 20 21 23 24 24 25 26 27 29 31 32 35 39 44 48 51 53 55 57 60 61 62 63 64 64 64 63 61 60
19 18 18 17 14 11 11 6 9 15 17 20 21 21 21 21 22 23 23 23 25 28 30 32 34 38 43 46 48 50 52 54 57 58 60 61 61 61 61 61 55 51 55 56
20 19 18 17 15 16 14 11 14 15 16 18 21 22 22 23 24 24 25 28 31 32 34 35 38 40 43 45 46 48 52 52 53 52 51 53 55 55 54 53 51 51 53 54
21 19 19 17 19 19 16 16 16 17 19 21 23 23 23 23 25 26 28 28 29 30 33 34 36 39 40 41 43 47 48 48 46 43 44 43 44 43 45 47 48 46 44 49
21 21 19 19 21 21 19 19 17 19 22 25 25 25 25 25 27 29 30 31 30 31 33 34 36 37 38 39 41 43 44 41 41 38 38 37 35 34 34 35 39 41 39 36
23 20 19 22 22 21 21 22 21 22 24 26 27 28 28 27 29 31 32 33 30 30 33 32 33 35 36 37 38 40 42 37 35 32 31 31 25 24 26 29 27 28 41 32
21 20 21 21 22 22 24 25 25 26 28 29 30 31 29 30 30 31 32 32 30 31 31 29 31 32 34 35 37 38 37 28 27 24 32 32 27 22 22 20 22 24 30 37
20 20 22 23 24 25 26 27 28 29 30 30 32 33 31 30 31 31 31 32 30 29 28 27 29 30 32 33 34 34 33 26 26 23 27 27 24 21 18 19 19 20 24 28
Wind_Direction
202 208 203 201 208 215 205 209 222 211 223 224 203 221 223 249 272 294 251 191 211 218 216 206 210 215 220 230 245 229 220 231 236 231 227 205 209 215 224 237 248 248 247 248
211 213 207 197 207 220 218 208 211 211 227 235 230 224 242 250 254 239 240 267 239 213 207 206 211 217 224 231 219 211 214 220 228 226 214 204 222 230 224 232 234 248 249 250
209 212 215 207 200 211 215 217 216 222 224 232 239 233 235 242 236 234 238 246 250 259 280 288 231 212 210 211 216 224 225 228 224 225 205 218 233 231 230 229 231 245 238 256
238 222 224 205 207 211 228 230 224 225 226 228 234 233 234 231 227 219 228 233 248 252 247 244 225 227 219 213 223 221 220 219 220 207 205 213 237 233 231 232 234 239 248 253
217 218 221 208 202 214 201 214 216 226 231 231 237 243 240 229 226 228 235 240 240 248 246 245 248 245 239 222 233 228 219 218 223 200 232 228 226 233 242 238 237 243 244 249
215 220 223 233 231 220 203 221 222 231 233 232 229 234 236 237 239 241 239 239 238 241 242 237 243 244 245 241 226 263 210 228 260 230 226 230 237 236 233 237 242 243 240 246
224 224 221 228 226 230 225 225 228 233 239 233 232 235 245 252 251 251 252 249 236 228 229 237 235 242 239 247 257 237 227 235 226 234 230 224 236 238 242 252 253 252 252 254
261 229 229 226 232 228 230 229 228 234 235 232 237 243 246 252 249 248 248 256 256 234 220 223 226 237 241 248 241 245 246 237 244 248 246 248 256 260 260 258 255 251 255 258
249 226 228 234 240 239 233 228 228 235 230 235 245 251 257 263 270 251 236 233 244 236 226 225 236 241 245 251 253 250 248 253 252 254 258 257 260 260 262 261 263 262 263 263
237 203 203 200 209 235 241 237 236 237 242 246 242 248 256 267 276 263 222 277 277 249 231 221 228 239 251 257 262 261 256 251 249 252 256 258 260 262 261 263 265 264 262 261
214 192 169 175 168 171 162 211 230 248 241 247 245 254 269 271 282 290 307 217 261 256 234 239 241 247 255 266 265 264 263 264 265 266 265 265 264 265 266 267 267 267 266 264
114 172 211 215 208 239 229 225 192 199 213 226 230 241 249 255 264 271 229 231 220 231 236 239 246 249 255 265 266 264 265 266 267 267 268 269 271 272 270 269 267 267 267 268
175 189 185 247 240 242 241 243 244 240 236 237 244 251 248 244 244 251 257 246 243 245 245 245 246 248 251 254 256 257 258 260 263 265 267 268 270 271 273 274 273 273 271 270
160 183 212 221 235 245 243 239 247 250 255 259 260 257 247 237 235 236 242 250 254 254 253 255 258 261 261 262 262 261 262 262 263 264 266 267 269 270 271 272 273 274 273 272
205 196 188 200 213 226 235 239 245 260 265 262 261 261 266 268 262 256 255 251 254 259 260 263 265 267 270 271 270 270 269 269 268 268 267 266 267 267 268 268 269 271 271 271
265 259 240 230 235 268 291 277 259 253 255 269 279 281 279 278 274 270 268 270 273 275 276 276 272 268 269 269 271 273 273 273 273 272 271 269 269 269 269 269 269 269 270 270
264 259 258 261 279 277 281 282 258 242 254 271 281 287 291 293 291 288 286 283 280 277 274 273 273 274 274 274 273 271 270 271 270 270 271 270 270 269 269 268 268 268 268 269
263 264 268 265 275 291 292 267 256 273 289 294 305 310 304 300 300 300 296 291 285 281 277 275 275 275 275 274 274 274 274 274 273 272 270 269 268 268 268 268 267 267 266 264
257 259 260 259 275 282 278 288 284 302 318 326 327 330 324 315 309 305 301 298 296 295 292 287 282 277 274 274 275 276 277 278 277 276 275 274 273 271 270 269 268 267 267 265
248 245 246 248 262 261 259 275 306 322 323 325 329 329 326 318 314 305 302 301 299 298 298 297 295 292 292 292 292 291 290 287 284 282 279 276 274 272 270 269 268 266 264 263
234 237 231 240 244 226 246 271 302 306 311 316 322 321 318 316 304 300 297 294 294 294 292 291 289 289 292 294 294 293 292 290 287 285 282 278 275 271 269 266 264 258 260 261
225 226 233 240 229 236 245 257 291 304 314 314 313 316 314 306 304 299 295 292 290 292 294 296 298 298 300 300 301 301 301 299 298 294 287 280 274 269 266 264 261 259 259 258
216 224 231 227 228 240 254 260 280 299 308 309 307 306 306 304 302 299 295 293 294 295 295 297 298 300 303 305 308 309 308 307 301 297 293 286 277 273 268 262 258 250 246 254
221 226 224 224 233 242 255 259 275 292 299 300 298 300 305 310 306 303 301 299 297 294 296 296 302 308 309 313 316 315 312 310 310 314 310 306 286 279 275 267 259 249 244 239
221 221 221 230 237 249 257 261 274 287 292 295 298 296 299 303 307 306 302 299 296 297 295 302 308 311 316 320 322 319 319 314 317 318 321 319 302 288 278 265 263 255 243 249
223 222 229 238 247 256 263 267 276 284 290 298 301 300 301 302 303 304 302 297 295 295 299 306 309 315 323 325 326 325 322 314 318 326 331 322 308 290 280 273 255 249 240 249
227 231 238 244 252 261 268 274 279 283 288 298 300 299 299 299 295 302 300 291 289 293 299 303 310 319 327 330 331 329 330 322 320 322 336 345 330 313 291 272 272 265 256 250